Location: McCall
(45.0000°N, 116.0000°W)
Time: 17:40:02
(UTC-06:00)

Saudisat 1A - Visible Passes

Search period start: 23 April 2017 00:00
Search period end: 03 May 2017 00:00
Orbit: 572 x 620 km, 64.6° (Epoch: 22 April)

Date Brightness Start Highest point End Pass type
(mag) Time Alt. Az. Time Alt. Az. Time Alt. Az.
23 Apr 10.5 00:46:10 11° W 00:49:19 20° NW 00:52:42 10° NNE visible
23 Apr 10.9 05:50:37 10° N 05:53:45 18° NE 05:56:49 10° E visible
23 Apr 9.6 21:38:17 12° SE 21:40:29 16° ESE 21:43:12 10° ENE visible
23 Apr 8.3 23:14:55 10° SW 23:19:24 67° NW 23:23:54 10° NNE visible
24 Apr 11.0 00:57:09 10° WNW 00:59:41 15° NNW 01:02:11 10° N visible
24 Apr 10.5 06:00:15 10° NNW 06:04:01 26° NE 06:07:45 10° E visible
24 Apr 8.9 21:46:26 10° S 21:50:13 27° ESE 21:54:01 10° ENE visible
24 Apr 9.3 23:25:13 10° WSW 23:29:29 41° NW 23:33:46 10° NNE visible
25 Apr 11.3 01:09:02 10° NW 01:10:07 11° NNW 01:11:12 10° NNW visible
25 Apr 11.5 04:32:45 10° NNE 04:33:33 10° NNE 04:34:20 10° NE visible
25 Apr 9.6 06:10:01 10° NNW 06:14:12 40° NE 06:18:20 10° ESE visible
25 Apr 8.3 21:55:44 10° SSW 22:00:02 47° ESE 22:04:22 10° NE visible
25 Apr 10.2 23:35:49 10° W 23:39:40 27° NW 23:43:31 10° NNE visible
26 Apr 11.2 04:41:36 10° N 04:43:59 14° NNE 04:46:22 10° ENE visible
26 Apr 8.0 22:05:27 10° SSW 22:09:56 81° SE 22:14:28 10° NE visible
26 Apr 10.8 23:46:43 10° W 23:49:56 19° NW 23:53:09 10° N visible
27 Apr 10.9 04:51:05 10° N 04:54:21 20° NE 04:57:35 10° E visible
27 Apr 8.7 22:15:30 10° SW 22:19:57 60° NW 22:24:26 10° NNE visible
27 Apr 11.3 23:58:01 10° WNW 00:00:18 14° NNW 00:02:35 10° N visible
28 Apr 10.2 05:00:44 10° NNW 05:04:37 28° NE 05:08:26 10° ESE visible
28 Apr 9.7 22:25:52 10° WSW 22:30:03 37° NW 22:34:16 10° NNE visible
29 Apr 11.7 00:10:27 10° NNW 00:10:46 10° NNW 00:11:04 10° NNW visible
29 Apr 11.5 03:32:54 10° N 03:34:11 11° NNE 03:35:29 10° NE visible
29 Apr 9.3 05:10:30 10° NNW 05:14:46 44° NE 05:18:57 10° ESE visible
29 Apr 10.5 22:36:31 10° W 22:40:15 25° NW 22:43:59 10° NNE visible
30 Apr 11.2 03:42:00 10° N 03:44:37 15° NNE 03:47:12 10° ENE visible
30 Apr 8.3 05:20:23 10° NNW 05:24:50 74° NE 05:29:11 10° SE visible
30 Apr 11.1 22:47:30 10° WNW 22:50:32 18° NW 22:53:35 10° N visible
01 May 10.7 03:51:32 10° NNW 03:54:57 21° NE 03:58:19 10° E visible
01 May 8.0 05:30:24 10° NW 05:34:48 65° WSW 05:39:06 10° SSE visible
01 May 9.0 21:16:05 10° SW 21:20:30 54° NW 21:24:56 10° NNE visible
01 May 11.4 22:58:54 10° NW 23:00:55 13° NNW 23:02:57 10° N visible
02 May 9.9 04:01:12 10° NNW 04:05:10 31° NE 04:09:05 10° ESE visible
02 May 8.5 05:40:36 10° NW 05:44:39 36° WSW 05:48:38 10° S visible
02 May 10.1 21:26:30 10° WSW 21:30:36 34° NW 21:34:44 10° NNE visible
